RH
14 20 19 23 18 24 23 19 22 21 24 50 52 44 46 65 52 47 91 95 98 98 99 98 87 89 89 94 92 95 88 79 78 87 91 90 91 89 86 89 97 92 90 96 98 98 100 95 93
17 19 20 22 19 16 12 20 20 20 31 56 58 59 56 58 75 82 90 98 98 96 97 98 88 88 88 89 87 93 96 100 95 94 99 98 98 98 100 97 100 99 99 100 99 84 70 79 84
20 18 16 21 27 15 14 16 16 19 33 38 60 68 64 65 70 76 96 97 100 94 88 93 89 89 88 88 89 90 97 92 98 97 97 98 98 100 100 99 100 100 99 96 76 70 74 76 74
20 17 16 17 18 18 18 13 14 14 27 45 54 57 74 80 73 87 98 99 97 96 93 76 87 93 92 89 87 87 86 91 97 94 97 98 98 100 95 90 82 77 70 59 47 43 42 43 40
19 19 20 19 17 16 16 14 15 16 21 56 54 55 70 84 98 99 99 99 100 100 98 90 80 84 90 90 89 88 85 89 89 90 95 97 99 95 83 82 76 60 43 31 27 24 23 22 22
20 20 22 20 19 17 17 17 16 29 45 59 55 61 69 87 97 96 96 91 90 98 95 97 81 82 86 86 87 89 89 91 90 93 98 99 100 88 86 76 53 29 21 20 24 24 25 26 28
22 24 26 24 24 21 16 13 35 47 52 51 56 51 76 90 94 97 96 96 98 97 95 88 97 87 82 83 89 88 85 91 94 98 99 100 93 86 71 39 24 21 23 29 32 31 31 32 38
23 22 27 25 22 19 15 13 14 37 47 58 58 47 51 78 98 99 99 95 99 100 100 99 97 96 93 86 94 92 94 96 91 92 97 91 79 56 46 38 40 35 36 36 35 34 32 35 51
19 22 25 21 21 17 15 16 12 47 55 58 60 60 66 85 99 100 100 100 100 100 100 99 93 83 79 82 97 100 99 94 92 95 93 62 56 48 49 49 45 44 39 38 38 35 31 37 51
18 23 21 18 17 17 17 16 14 24 48 51 59 70 87 98 97 99 98 98 100 100 100 100 91 82 81 88 95 100 100 99 96 92 73 42 41 44 66 64 59 47 39 36 36 33 33 49 71
21 21 20 18 17 16 20 20 14 14 18 31 35 56 84 94 89 95 94 97 100 98 99 97 95 92 87 91 96 100 99 96 93 87 47 41 42 45 46 44 45 43 39 38 39 38 41 45 66
25 22 21 18 22 23 23 19 18 15 14 15 22 55 74 81 85 83 90 94 98 100 100 95 93 89 86 94 97 96 97 95 92 72 53 49 49 48 46 43 42 41 40 38 39 39 40 48 55
28 25 25 24 26 27 27 24 21 18 14 35 53 70 72 72 76 85 87 92 87 96 99 97 89 83 89 100 98 96 96 95 91 71 61 55 55 51 46 44 40 38 37 37 38 41 45 64 81
28 28 28 27 25 26 24 21 20 17 30 44 69 67 71 72 71 82 88 82 86 88 97 99 88 80 86 94 99 98 94 90 73 68 57 55 55 50 46 43 41 38 37 37 37 41 43 72 82
30 32 28 25 24 21 22 21 18 20 53 50 59 66 74 73 74 72 76 77 81 84 93 100 90 87 86 82 85 96 82 67 65 64 60 59 54 49 48 45 42 39 39 40 40 43 46 78 82
32 34 34 24 25 20 19 25 19 19 34 24 39 55 64 70 72 73 75 77 75 85 95 95 91 86 78 71 68 74 67 64 66 67 64 58 55 52 49 46 44 44 45 45 43 44 66 81 80
39 33 39 33 26 25 28 32 20 18 16 16 16 22 47 59 66 74 80 82 80 81 95 94 92 87 74 58 65 70 67 66 64 62 60 59 57 53 50 47 44 45 44 46 44 44 70 85 84
31 37 39 40 32 31 33 33 25 18 16 16 16 17 22 46 48 56 70 77 85 87 95 93 96 88 70 60 73 77 70 66 64 63 61 60 58 56 54 50 46 46 46 49 48 47 80 82 78
40 44 45 39 35 42 37 32 24 17 18 17 17 16 15 18 23 34 59 72 81 90 95 96 98 92 75 72 85 85 76 76 67 64 61 60 58 56 53 50 48 45 47 50 46 62 84 84 81
45 48 43 41 36 35 28 25 18 16 16 17 17 16 34 44 44 46 42 67 79 85 93 96 96 97 84 76 86 88 83 78 71 63 64 60 57 55 53 48 47 45 44 47 47 70 77 81 74
50 52 49 43 35 23 23 22 22 19 18 16 18 32 51 61 61 55 53 62 78 86 95 99 95 96 92 83 88 81 78 70 70 66 64 63 59 56 55 51 46 42 49 64 57 72 70 71 77
47 39 42 43 38 31 22 27 21 18 16 16 34 50 66 72 69 68 70 79 85 91 97 95 95 96 100 98 92 83 78 76 72 74 70 67 62 61 60 55 50 42 38 46 48 51 70 68 66
27 28 28 25 24 28 24 26 20 17 15 18 36 61 67 81 89 88 86 93 95 97 96 92 93 98 100 99 99 95 90 86 78 74 71 71 67 64 64 60 54 45 38 39 51 48 46 65 67
21 22 26 34 30 30 21 23 19 21 33 36 42 58 62 66 77 88 95 98 99 99 100 98 99 99 95 89 88 90 90 94 95 91 82 74 71 66 64 60 54 48 40 39 41 43 46 43 55
24 25 27 26 34 27 30 29 21 30 46 48 56 58 63 69 72 82 89 88 96 100 100 93 85 88 82 78 77 86 93 100 98 96 90 86 82 72 62 58 54 48 42 41 39 37 36 41 56
28 28 33 30 30 27 33 33 25 47 49 53 56 63 63 61 69 75 83 94 94 100 96 76 75 78 76 72 68 77 78 92 94 90 91 88 76 64 60 60 54 46 42 42 43 39 33 34 50
29 33 30 38 41 42 28 30 43 43 48 54 58 59 54 54 62 68 77 90 96 95 91 86 79 77 66 56 65 92 100 100 100 95 87 79 60 57 59 59 57 51 47 44 41 35 32 53 66
24 23 32 39 41 39 28 28 26 48 43 46 54 43 38 41 48 54 66 77 88 91 89 92 93 80 69 67 74 92 100 100 98 90 77 63 57 59 58 57 55 49 45 43 46 42 37 42 62
26 28 31 33 42 41 41 36 48 49 48 43 38 36 34 34 32 36 52 63 76 85 86 90 98 94 90 94 95 98 100 98 92 81 78 75 66 63 59 57 57 52 45 46 51 44 42 58 62
29 31 33 44 39 47 58 57 44 43 37 35 32 30 32 33 32 35 34 50 72 81 82 86 96 100 100 100 88 99 100 94 85 76 76 83 70 66 60 58 58 56 49 45 54 61 64 63 61
Wind_Speed
3 1 2 2 2 1 2 2 3 3 2 0 1 2 2 1 3 2 2 7 15 21 18 20 22 22 22 21 20 20 20 21 20 19 19 19 19 17 17 16 15 14 12 11 10 9 8 8 7
2 6 4 2 1 0 1 3 7 8 2 7 5 3 4 2 2 4 5 8 18 22 22 20 22 22 22 23 23 18 19 18 18 19 18 18 18 17 16 14 13 14 11 11 11 8 6 6 5
7 3 1 2 2 1 2 4 9 3 6 6 5 2 1 2 2 3 4 12 19 20 21 22 23 23 23 21 20 20 18 17 17 17 17 17 16 15 14 13 13 13 11 10 9 9 8 6 5
3 2 3 1 2 4 4 8 7 10 1 5 3 3 2 1 3 4 13 16 20 19 19 23 24 24 24 24 21 19 17 16 16 14 14 14 14 13 12 11 10 9 7 6 8 8 7 5 5
4 2 2 1 3 4 6 7 4 6 2 2 3 3 2 3 6 12 17 17 16 15 17 20 21 22 22 22 21 19 18 17 16 16 15 13 12 11 10 9 9 8 7 6 8 9 8 7 7
2 1 1 2 3 4 7 5 3 1 1 2 4 5 2 4 10 13 17 19 17 18 17 17 20 19 17 17 18 19 20 19 18 16 14 12 11 8 8 9 8 8 8 9 10 11 10 9 9
3 2 2 2 3 4 4 8 2 1 2 2 4 2 2 8 9 14 17 19 20 20 20 18 16 17 18 19 19 19 17 18 16 11 10 11 9 9 9 8 9 10 11 11 11 13 12 11 11
3 2 3 3 1 4 2 9 2 2 0 3 1 2 2 10 15 16 18 18 20 21 21 21 19 20 18 16 18 20 19 16 11 10 8 8 10 11 11 11 10 12 13 14 13 13 13 13 14
3 2 3 3 4 3 3 7 4 1 3 3 2 2 3 15 20 18 19 19 21 23 24 23 22 20 19 18 17 18 17 15 14 11 9 11 12 12 12 12 13 12 13 13 12 12 14 15 16
3 3 5 3 3 4 4 2 7 3 2 4 4 4 7 18 20 17 16 17 20 24 22 22 22 21 21 20 19 17 17 15 14 12 13 13 14 14 12 13 14 13 13 12 12 13 14 15 14
3 4 4 3 4 3 7 13 3 3 5 8 6 7 11 15 20 21 22 21 22 28 27 25 23 20 21 22 21 20 18 17 16 15 16 15 14 12 11 13 13 13 12 13 12 13 13 14 14
3 4 3 3 2 4 7 5 6 9 11 6 8 10 16 17 18 23 21 22 22 18 21 26 25 23 23 25 25 23 21 19 17 18 18 18 15 15 14 13 14 13 13 13 13 13 14 15 15
2 2 3 8 12 8 5 11 11 9 12 5 1 13 17 15 18 20 21 20 21 22 24 23 23 22 21 23 23 23 22 21 22 22 19 18 17 18 18 16 15 14 13 14 15 15 15 16 15
3 7 12 8 8 4 4 3 2 1 9 5 1 5 7 11 13 16 20 22 25 24 22 22 24 25 25 24 24 23 23 23 23 22 19 17 17 19 18 18 17 16 16 17 17 18 18 17 16
5 9 7 1 2 1 3 3 3 7 4 3 2 4 8 9 13 19 20 24 21 21 20 22 24 25 26 25 24 25 25 23 23 22 19 18 18 17 16 15 15 17 18 19 19 19 19 19 16
4 1 4 1 7 2 1 5 6 2 6 7 5 6 8 12 16 19 20 21 21 20 21 22 27 28 28 27 25 23 22 22 21 20 19 18 18 18 17 15 14 16 17 18 20 19 18 18 18
2 4 3 6 2 4 7 10 9 6 6 9 8 6 7 9 13 20 23 24 23 22 22 25 28 31 30 27 24 23 21 19 18 18 18 19 18 17 17 17 16 16 18 19 19 20 20 21 20
4 4 4 9 3 13 16 15 13 11 8 11 13 9 5 7 13 16 22 26 25 23 24 24 25 32 32 28 25 22 21 20 19 17 18 19 18 18 16 16 16 16 17 18 19 21 19 22 24
2 4 11 11 12 6 14 12 13 15 7 13 9 6 7 7 7 12 16 19 22 24 25 27 25 31 36 33 21 17 18 18 19 19 19 20 19 19 17 16 16 16 15 17 20 21 25 22 25
7 9 14 10 8 6 10 15 15 15 11 8 5 3 6 9 12 13 13 11 18 21 24 23 23 26 34 33 23 15 17 15 17 18 18 18 19 19 19 18 16 16 18 20 22 23 21 21 22
4 7 6 10 8 5 9 16 8 4 4 1 7 6 10 11 12 13 13 8 8 13 16 18 20 26 32 32 28 21 20 15 14 16 18 20 18 17 17 17 18 16 17 17 17 17 16 19 13
3 7 9 7 4 6 4 11 6 5 6 2 8 11 9 10 10 11 12 10 4 4 9 12 16 20 19 22 20 28 18 13 8 12 15 19 17 15 14 14 14 16 16 18 19 19 15 20 18
5 3 3 4 7 4 4 7 2 1 6 8 8 9 5 4 5 9 8 8 8 8 10 12 14 13 14 12 13 13 11 8 4 3 6 11 15 13 12 11 11 12 15 15 16 18 18 18 16
1 3 1 2 2 9 12 12 2 2 1 4 7 11 12 12 9 7 6 7 9 10 13 17 19 17 13 8 8 9 7 12 9 12 16 14 13 14 12 12 10 11 12 14 15 16 16 16 14
2 2 4 4 4 7 1 5 13 2 2 1 3 5 8 8 8 6 4 4 9 12 19 21 16 18 17 14 13 17 20 26 21 22 24 19 18 14 14 12 12 13 12 13 12 12 11 13 13
2 3 3 6 5 9 1 7 3 1 2 2 2 4 4 4 3 2 2 1 5 13 19 22 23 24 22 21 23 26 26 33 28 25 24 22 19 19 17 16 16 15 14 12 11 10 8 8 10
3 4 1 3 1 7 6 3 4 4 4 5 5 2 2 3 2 2 4 9 11 14 21 26 27 25 24 25 26 22 23 22 25 26 27 28 23 21 21 19 17 14 13 13 13 12 12 9 8
2 3 3 1 6 13 11 18 11 6 1 3 0 6 7 6 7 7 9 14 18 23 28 22 18 17 22 25 25 25 23 22 24 24 24 25 25 24 24 24 21 18 15 14 14 15 15 12 8
1 3 3 2 4 11 15 9 4 4 5 4 10 12 15 15 14 14 11 16 20 23 26 29 23 21 18 20 23 22 25 26 26 25 27 25 25 24 24 23 23 19 16 16 16 15 16 16 13
2 5 3 5 7 2 3 17 5 5 6 11 17 18 16 15 16 15 13 13 13 17 20 24 23 21 20 19 22 24 21 23 24 27 29 30 28 25 24 21 19 17 17 18 18 17 14 15 16
Wind_Direction
297 287 147 38 218 29 269 243 300 232 208 191 165 196 201 68 227 313 157 198 153 152 156 155 156 157 162 163 157 157 153 153 151 147 141 139 139 141 141 143 128 129 135 132 124 116 103 97 91
187 120 62 77 105 136 234 263 240 236 115 136 127 140 190 169 173 139 155 161 161 154 153 155 155 157 160 161 156 161 155 148 150 149 143 140 141 142 143 140 136 126 129 122 116 118 114 110 106
150 114 86 77 96 175 282 226 273 307 212 212 155 352 125 74 123 160 166 158 156 159 159 157 158 161 161 158 160 163 154 153 151 146 147 142 140 141 141 138 130 127 130 131 121 112 113 114 103
142 72 82 284 247 240 241 284 295 312 87 172 149 149 144 313 167 168 153 153 158 161 164 164 165 165 162 159 163 162 157 162 154 153 148 144 142 140 142 140 138 133 135 137 126 124 118 109 94
54 76 72 276 263 268 254 280 304 298 341 141 203 146 144 133 139 148 155 153 158 162 166 168 171 170 167 162 162 161 163 165 168 165 161 155 149 151 153 150 142 141 143 141 130 123 115 109 98
94 96 226 249 263 269 282 270 257 274 98 148 165 158 149 150 153 159 166 169 176 176 171 172 173 172 169 167 170 169 167 170 172 168 162 157 157 162 157 156 150 142 135 128 125 115 109 101 99
148 132 235 258 291 292 276 329 27 46 158 214 122 172 123 188 171 164 171 176 179 176 173 175 173 174 175 177 176 176 180 176 177 170 167 168 168 159 159 153 148 140 133 130 130 116 108 99 98
117 105 148 220 266 283 309 325 339 349 15 135 96 250 172 188 171 170 175 177 176 173 174 172 168 163 165 174 181 181 181 176 182 190 192 175 158 151 146 140 134 132 128 128 128 121 112 108 107
144 123 194 233 199 281 335 348 359 87 134 239 209 241 16 158 165 168 168 175 180 182 182 177 177 181 187 185 181 179 183 186 194 199 208 178 159 148 137 136 134 132 129 131 129 122 117 118 116
166 191 215 218 204 264 315 351 318 275 241 236 263 219 172 165 170 176 180 179 183 184 187 187 190 189 195 189 193 192 194 198 199 205 187 167 154 147 136 135 140 139 135 131 131 126 121 120 118
154 221 188 228 211 234 302 309 201 248 254 239 235 210 180 176 186 191 196 192 188 193 194 197 196 191 196 197 202 203 203 198 200 198 178 168 163 158 159 148 147 142 139 136 136 129 124 128 127
282 269 261 283 278 285 272 265 252 210 245 214 233 192 180 192 197 203 200 199 195 193 201 203 203 201 206 205 207 207 202 202 204 192 185 181 177 170 170 163 156 153 148 143 145 135 128 130 129
221 294 291 272 280 271 283 257 265 260 270 312 224 177 193 198 205 206 208 207 202 202 205 205 209 212 209 208 208 207 207 208 202 196 195 193 188 183 179 175 166 160 154 151 149 143 132 129 125
298 279 286 278 281 247 270 325 225 300 333 311 285 234 229 219 213 212 212 210 207 208 212 208 206 208 212 211 210 213 211 206 199 197 196 191 192 188 182 176 171 164 158 154 153 150 141 135 131
294 307 313 210 336 121 232 134 78 333 349 336 255 249 242 239 228 227 225 220 218 221 213 212 211 208 209 211 211 206 202 197 196 196 195 194 191 191 188 183 172 165 160 155 149 145 143 137 133
305 16 327 276 356 88 318 265 296 3 348 337 317 255 241 230 231 237 235 234 225 219 213 209 213 213 209 212 206 198 196 194 193 193 191 193 195 194 188 185 177 164 156 156 151 146 137 137 137
22 280 277 302 29 6 32 302 296 305 307 305 312 287 267 265 249 240 233 227 222 218 207 208 208 213 211 206 198 197 197 195 192 190 193 192 197 195 193 186 181 176 165 162 156 150 146 142 137
260 271 256 271 265 315 301 284 278 287 272 288 300 309 285 265 267 263 244 235 225 219 210 212 206 212 208 202 194 192 190 190 191 194 192 193 193 194 194 186 182 177 169 168 163 153 143 142 137
232 242 266 277 276 295 279 277 281 286 257 278 292 332 348 330 321 312 269 247 230 221 213 206 201 208 205 195 178 181 185 188 189 191 194 190 191 194 191 187 182 177 175 171 165 152 142 140 140
244 268 276 283 281 212 280 278 274 267 268 275 335 25 22 347 339 333 322 260 231 227 224 214 205 204 200 195 186 183 182 185 188 189 191 191 191 192 191 187 188 185 175 168 165 156 149 152 159
247 239 258 269 320 261 300 281 250 262 235 91 69 40 28 8 341 343 348 336 235 222 217 203 197 204 203 197 193 186 184 181 182 184 189 187 189 191 194 188 180 182 181 171 166 168 165 162 179
272 229 258 283 308 293 346 293 271 257 289 318 51 33 25 6 359 359 6 23 49 158 162 172 187 192 190 191 182 180 172 173 204 190 190 184 181 185 190 188 185 179 179 185 181 178 180 174 173
244 170 244 282 270 312 277 278 13 60 298 326 11 30 28 51 30 28 25 41 64 108 133 160 162 150 153 150 148 142 123 80 139 166 199 188 172 176 187 189 192 183 176 179 191 186 185 186 188
200 253 174 103 201 259 254 229 328 346 27 327 3 14 14 16 36 44 60 82 96 112 118 123 123 123 138 132 169 189 178 212 190 195 209 203 187 172 181 189 193 198 177 183 184 186 193 194 202
133 175 280 248 203 260 321 244 262 200 217 270 345 17 22 13 7 9 29 116 134 133 131 128 149 152 153 165 180 199 205 218 199 209 211 203 191 183 190 196 194 198 179 182 181 179 186 197 197
192 202 223 279 269 283 228 244 248 161 174 156 113 53 35 19 353 11 4 233 159 155 157 160 160 167 175 189 197 197 186 212 203 201 219 214 211 198 188 191 194 189 182 176 170 167 176 179 190
153 219 328 285 192 278 257 250 205 199 146 108 93 93 24 342 312 280 209 194 192 196 194 193 185 182 185 190 192 210 208 204 201 208 215 211 204 194 187 189 193 189 180 175 170 162 167 161 155
221 142 248 312 280 269 275 291 278 195 125 104 49 331 322 298 274 252 225 218 211 208 205 221 231 231 205 211 220 215 222 216 213 216 214 210 198 197 189 187 189 185 182 178 174 169 160 147 140
282 249 231 274 244 272 287 279 116 100 81 356 311 303 303 298 287 272 256 235 223 221 222 226 228 234 237 221 223 223 227 221 216 214 219 217 206 197 195 191 184 176 180 183 180 172 162 153 153
198 264 237 220 254 274 316 268 122 158 305 303 298 295 299 293 295 280 276 259 244 238 246 247 254 242 242 236 238 226 213 221 215 215 221 216 203 198 195 192 186 176 190 188 184 176 170 166 156